N613PM KOKC-KDAL

Flight info

Callsign N613PM
Flight time 0h 48m
Altitude 23000
Route KRMSN4 KRMSN AIRRE HIBIL3
Aircraft EPIC/L-SDFGIRWXY/SB2

Departure

Time 2026-04-27 21:48
Airport OKC Will Rogers World Airport (KOKC)

Arrival

Time 2026-04-27 22:36
Airport Dallas Love Field (KDAL)
Time Latitude Longitude Altitude Speed Heading
2026-04-27 21:31 35.39642 -97.58539 1278 ft 0 kts 180°
2026-04-27 21:42 35.39640 -97.58539 1278 ft 1 kts 181°
2026-04-27 21:42 35.39619 -97.58545 1279 ft 4 kts 205°
2026-04-27 21:42 35.39616 -97.58586 1279 ft 7 kts 347°
2026-04-27 21:43 35.39682 -97.58607 1278 ft 10 kts 354°
2026-04-27 21:43 35.39717 -97.58640 1278 ft 6 kts 286°
2026-04-27 21:43 35.39721 -97.58710 1278 ft 8 kts 269°
2026-04-27 21:43 35.39720 -97.58836 1280 ft 19 kts 271°
2026-04-27 21:44 35.39716 -97.58999 1283 ft 13 kts 259°
2026-04-27 21:44 35.39639 -97.59064 1284 ft 15 kts 190°
2026-04-27 21:44 35.39512 -97.59060 1285 ft 17 kts 180°
2026-04-27 21:44 35.39372 -97.59061 1285 ft 20 kts 178°
2026-04-27 21:45 35.39212 -97.59058 1287 ft 21 kts 178°
2026-04-27 21:45 35.39043 -97.59057 1286 ft 23 kts 181°
2026-04-27 21:45 35.38861 -97.59061 1284 ft 25 kts 179°
2026-04-27 21:45 35.38665 -97.59067 1283 ft 26 kts 174°
2026-04-27 21:46 35.38457 -97.59063 1282 ft 27 kts 180°
2026-04-27 21:46 35.38239 -97.59060 1279 ft 28 kts 179°
2026-04-27 21:46 35.38057 -97.59061 1276 ft 20 kts 179°
2026-04-27 21:46 35.37904 -97.59062 1274 ft 18 kts 176°
2026-04-27 21:47 35.37872 -97.59058 1274 ft 4 kts 165°
2026-04-27 21:47 35.37837 -97.59019 1274 ft 0 kts 110°
2026-04-27 21:47 35.37836 -97.59014 1275 ft 2 kts 104°
2026-04-27 21:47 35.37835 -97.58935 1274 ft 16 kts 84°
2026-04-27 21:48 35.37994 -97.58890 1278 ft 40 kts 358°
2026-04-27 21:48 35.38627 -97.58874 1294 ft 121 kts 358°
2026-04-27 21:48 35.39571 -97.58818 1696 ft 133 kts
2026-04-27 21:48 35.40634 -97.58631 2121 ft 155 kts 14°
2026-04-27 21:49 35.41710 -97.58116 2984 ft 154 kts 14°
2026-04-27 21:49 35.42793 -97.57614 3838 ft 158 kts 13°
2026-04-27 21:49 35.43842 -97.57083 4642 ft 161 kts 14°
2026-04-27 21:49 35.45081 -97.56499 4993 ft 198 kts 13°
2026-04-27 21:50 35.46623 -97.55823 5032 ft 239 kts 14°
2026-04-27 21:50 35.48369 -97.55086 5018 ft 259 kts 14°
2026-04-27 21:50 35.50240 -97.54320 5008 ft 269 kts 14°
2026-04-27 21:50 35.52146 -97.53550 5005 ft 275 kts 14°
2026-04-27 21:51 35.54122 -97.52756 5006 ft 278 kts 14°
2026-04-27 21:51 35.56057 -97.51980 5004 ft 280 kts 14°
2026-04-27 21:51 35.57990 -97.50913 4962 ft 289 kts 37°
2026-04-27 21:51 35.59078 -97.48695 5205 ft 284 kts 77°
2026-04-27 21:52 35.58866 -97.46230 5685 ft 267 kts 117°
2026-04-27 21:52 35.57749 -97.44318 6210 ft 251 kts 131°
2026-04-27 21:52 35.56330 -97.42904 6717 ft 235 kts 156°
2026-04-27 21:52 35.54751 -97.42009 7239 ft 226 kts 161°
2026-04-27 21:53 35.53172 -97.41219 7771 ft 221 kts 163°
2026-04-27 21:53 35.51669 -97.40482 8291 ft 217 kts 164°
2026-04-27 21:53 35.50153 -97.39745 8824 ft 213 kts 164°
2026-04-27 21:53 35.48705 -97.39039 9473 ft 206 kts 165°
2026-04-27 21:54 35.47427 -97.38406 10740 ft 180 kts 168°
2026-04-27 21:54 35.46284 -97.37849 11787 ft 169 kts 171°
2026-04-27 21:54 35.45125 -97.37292 12702 ft 168 kts 172°
2026-04-27 21:54 35.43946 -97.36725 13593 ft 170 kts 173°
2026-04-27 21:55 35.42788 -97.36164 14473 ft 171 kts 174°
2026-04-27 21:55 35.41601 -97.35592 15203 ft 172 kts 174°
2026-04-27 21:55 35.40403 -97.35015 15799 ft 176 kts 174°
2026-04-27 21:55 35.39218 -97.34438 16346 ft 181 kts 175°
2026-04-27 21:56 35.37949 -97.33824 17002 ft 181 kts 175°
2026-04-27 21:56 35.35355 -97.32570 18258 ft 187 kts 175°
2026-04-27 21:56 35.34056 -97.31940 18874 ft 189 kts 175°
2026-04-27 21:57 35.32727 -97.31296 19489 ft 190 kts 176°
2026-04-27 21:57 35.31385 -97.30651 20016 ft 192 kts 176°
2026-04-27 21:57 35.30017 -97.29986 20567 ft 194 kts 176°
2026-04-27 21:57 35.28669 -97.29336 21084 ft 197 kts 176°
2026-04-27 21:58 35.27259 -97.28653 21619 ft 199 kts 176°
2026-04-27 21:58 35.25867 -97.27982 22176 ft 200 kts 176°
2026-04-27 21:58 35.24435 -97.27292 22702 ft 203 kts 176°
2026-04-27 21:58 35.22942 -97.26582 22816 ft 226 kts 175°
2026-04-27 21:59 35.21301 -97.25792 22826 ft 249 kts 173°
2026-04-27 21:59 35.19474 -97.24912 22832 ft 271 kts 172°
2026-04-27 21:59 35.17502 -97.23956 22818 ft 290 kts 171°
2026-04-27 21:59 35.15473 -97.22977 22808 ft 302 kts 171°
2026-04-27 22:00 35.13341 -97.21949 22806 ft 312 kts 171°
2026-04-27 22:00 35.11176 -97.20908 22799 ft 319 kts 170°
2026-04-27 22:00 35.08962 -97.19841 22801 ft 324 kts 170°
2026-04-27 22:00 35.06700 -97.18754 22804 ft 328 kts 170°
2026-04-27 22:01 35.04419 -97.17660 22810 ft 331 kts 170°
2026-04-27 22:01 35.02105 -97.16549 22810 ft 333 kts 170°
2026-04-27 22:01 34.99807 -97.15449 22813 ft 335 kts 170°
2026-04-27 22:01 34.97479 -97.14334 22815 ft 336 kts 170°
2026-04-27 22:02 34.95169 -97.13226 22815 ft 337 kts 170°
2026-04-27 22:02 34.92777 -97.12048 22812 ft 345 kts 163°
2026-04-27 22:02 34.90910 -97.10307 22850 ft 360 kts 149°
2026-04-27 22:02 34.89043 -97.08366 22826 ft 362 kts 149°
2026-04-27 22:03 34.86986 -97.06228 22825 ft 363 kts 149°
2026-04-27 22:03 34.84992 -97.04163 22819 ft 361 kts 149°
2026-04-27 22:03 34.83138 -97.02239 22823 ft 360 kts 149°
2026-04-27 22:03 34.81323 -97.00366 22827 ft 360 kts 149°
2026-04-27 22:04 34.79484 -96.98466 22821 ft 361 kts 149°
2026-04-27 22:04 34.77596 -96.96514 22828 ft 364 kts 149°
2026-04-27 22:04 34.75555 -96.94408 22827 ft 367 kts 149°
2026-04-27 22:04 34.73475 -96.92264 22826 ft 368 kts 149°
2026-04-27 22:05 34.71396 -96.90119 22822 ft 370 kts 149°
2026-04-27 22:05 34.69281 -96.87944 22817 ft 371 kts 148°
2026-04-27 22:05 34.67211 -96.85809 22817 ft 371 kts 148°
2026-04-27 22:05 34.65126 -96.83669 22820 ft 372 kts 148°
2026-04-27 22:06 34.63016 -96.81499 22820 ft 373 kts 148°
2026-04-27 22:06 34.60955 -96.79380 22815 ft 373 kts 148°
2026-04-27 22:06 34.58870 -96.77242 22823 ft 373 kts 148°
2026-04-27 22:06 34.56778 -96.75095 22831 ft 373 kts 148°
2026-04-27 22:07 34.54706 -96.72970 22836 ft 373 kts 148°
2026-04-27 22:07 34.52636 -96.70850 22845 ft 373 kts 148°
2026-04-27 22:07 34.50567 -96.68731 22852 ft 373 kts 148°
2026-04-27 22:07 34.48502 -96.66621 22865 ft 373 kts 148°
2026-04-27 22:08 34.46433 -96.64503 22874 ft 373 kts 148°
2026-04-27 22:08 34.44363 -96.62391 22884 ft 373 kts 148°
2026-04-27 22:08 34.42317 -96.60300 22892 ft 373 kts 148°
2026-04-27 22:08 34.40329 -96.58275 22900 ft 373 kts 148°
2026-04-27 22:09 34.38253 -96.56155 22928 ft 373 kts 148°
2026-04-27 22:09 34.36159 -96.54023 22823 ft 376 kts 148°
2026-04-27 22:09 34.34059 -96.51887 22809 ft 376 kts 148°
2026-04-27 22:09 34.31986 -96.49777 22811 ft 376 kts 148°
2026-04-27 22:10 34.29886 -96.47642 22806 ft 376 kts 147°
2026-04-27 22:10 34.27826 -96.45544 22808 ft 376 kts 148°
2026-04-27 22:10 34.25731 -96.43423 22807 ft 376 kts 147°
2026-04-27 22:10 34.23642 -96.41298 22806 ft 376 kts 148°
2026-04-27 22:11 34.21561 -96.39189 22803 ft 376 kts 148°
2026-04-27 22:11 34.19496 -96.37096 22806 ft 375 kts 148°
2026-04-27 22:11 34.17397 -96.34971 22806 ft 375 kts 148°
2026-04-27 22:11 34.15284 -96.32833 22793 ft 374 kts 148°
2026-04-27 22:12 34.13180 -96.30702 22795 ft 374 kts 148°
2026-04-27 22:12 34.11094 -96.28595 22799 ft 373 kts 148°
2026-04-27 22:12 34.09053 -96.26538 22351 ft 378 kts 148°
2026-04-27 22:12 34.07002 -96.24468 21922 ft 378 kts 148°
2026-04-27 22:13 34.04925 -96.22370 21493 ft 376 kts 148°
2026-04-27 22:13 34.02863 -96.20293 21068 ft 374 kts 148°
2026-04-27 22:13 34.00894 -96.18309 20665 ft 371 kts 148°
2026-04-27 22:13 33.98882 -96.16282 20253 ft 369 kts 148°
2026-04-27 22:14 33.96880 -96.14268 19846 ft 366 kts 148°
2026-04-27 22:14 33.94936 -96.12315 19532 ft 362 kts 148°
2026-04-27 22:14 33.93085 -96.10450 19190 ft 359 kts 148°
2026-04-27 22:14 33.91120 -96.08534 18974 ft 345 kts 156°
2026-04-27 22:15 33.88899 -96.07735 18967 ft 303 kts 189°
2026-04-27 22:15 33.86773 -96.08057 18652 ft 299 kts 201°
2026-04-27 22:15 33.84837 -96.08730 18333 ft 307 kts 205°
2026-04-27 22:15 33.82863 -96.09541 18008 ft 313 kts 206°
2026-04-27 22:16 33.80851 -96.10426 17661 ft 311 kts 207°
2026-04-27 22:16 33.78948 -96.11279 17336 ft 307 kts 207°
2026-04-27 22:16 33.77091 -96.12125 17028 ft 303 kts 207°
2026-04-27 22:16 33.75242 -96.12965 16718 ft 300 kts 207°
2026-04-27 22:17 33.73369 -96.13815 16405 ft 298 kts 208°
2026-04-27 22:17 33.71482 -96.14681 16101 ft 295 kts 207°
2026-04-27 22:17 33.69566 -96.15551 15788 ft 293 kts 207°
2026-04-27 22:17 33.67652 -96.16421 15474 ft 291 kts 207°
2026-04-27 22:18 33.65765 -96.17282 15166 ft 290 kts 207°
2026-04-27 22:18 33.63861 -96.18146 14856 ft 288 kts 207°
2026-04-27 22:18 33.61965 -96.19009 14552 ft 286 kts 207°
2026-04-27 22:18 33.60112 -96.19849 14247 ft 285 kts 207°
2026-04-27 22:19 33.58252 -96.20696 13941 ft 283 kts 207°
2026-04-27 22:19 33.56316 -96.21442 13642 ft 283 kts 204°
2026-04-27 22:19 33.54457 -96.22136 13351 ft 282 kts 204°
2026-04-27 22:19 33.52654 -96.22807 13067 ft 281 kts 204°
2026-04-27 22:20 33.50811 -96.23494 12776 ft 280 kts 204°
2026-04-27 22:20 33.48938 -96.24196 12478 ft 279 kts 203°
2026-04-27 22:20 33.47100 -96.24880 12183 ft 278 kts 203°
2026-04-27 22:20 33.45227 -96.25577 11889 ft 278 kts 203°
2026-04-27 22:21 33.43406 -96.26312 11561 ft 278 kts 204°
2026-04-27 22:21 33.41585 -96.27062 11255 ft 278 kts 204°
2026-04-27 22:21 33.39812 -96.27797 10959 ft 277 kts 204°
2026-04-27 22:21 33.38063 -96.28524 10670 ft 277 kts 204°
2026-04-27 22:22 33.36340 -96.29239 10397 ft 277 kts 204°
2026-04-27 22:22 33.34574 -96.29971 10112 ft 277 kts 204°
2026-04-27 22:22 33.32861 -96.30680 9843 ft 277 kts 204°
2026-04-27 22:22 33.31162 -96.31383 9569 ft 277 kts 204°
2026-04-27 22:23 33.29399 -96.32111 9301 ft 278 kts 204°
2026-04-27 22:23 33.27642 -96.32838 9057 ft 277 kts 204°
2026-04-27 22:23 33.26075 -96.33846 8977 ft 267 kts 229°
2026-04-27 22:23 33.25008 -96.35433 9015 ft 262 kts 233°
2026-04-27 22:24 33.23982 -96.37029 8997 ft 261 kts 239°
2026-04-27 22:24 33.23160 -96.38851 8897 ft 263 kts 242°
2026-04-27 22:24 33.22360 -96.40661 8574 ft 269 kts 242°
2026-04-27 22:24 33.21572 -96.42454 8250 ft 273 kts 243°
2026-04-27 22:25 33.20748 -96.44336 7921 ft 276 kts 243°
2026-04-27 22:25 33.19954 -96.46140 7595 ft 278 kts 243°
2026-04-27 22:25 33.19183 -96.47904 7275 ft 280 kts 243°
2026-04-27 22:25 33.18413 -96.49667 6971 ft 282 kts 243°
2026-04-27 22:26 33.17608 -96.51517 6656 ft 284 kts 243°
2026-04-27 22:26 33.16802 -96.53371 6335 ft 285 kts 243°
2026-04-27 22:26 33.15984 -96.55242 6015 ft 286 kts 243°
2026-04-27 22:26 33.15161 -96.57117 5703 ft 286 kts 243°
2026-04-27 22:27 33.14334 -96.59019 5375 ft 282 kts 243°
2026-04-27 22:27 33.13544 -96.60850 5048 ft 278 kts 243°
2026-04-27 22:27 33.12758 -96.62682 4721 ft 276 kts 243°
2026-04-27 22:27 33.11986 -96.64500 4395 ft 274 kts 243°
2026-04-27 22:28 33.11199 -96.66349 4089 ft 272 kts 242°
2026-04-27 22:28 33.10442 -96.68122 4017 ft 262 kts 242°
2026-04-27 22:28 33.09699 -96.69865 4004 ft 253 kts 242°
2026-04-27 22:28 33.08978 -96.71561 4002 ft 245 kts 242°
2026-04-27 22:29 33.08261 -96.73244 4007 ft 246 kts 242°
2026-04-27 22:29 33.07557 -96.74911 3805 ft 256 kts 242°
2026-04-27 22:29 33.06828 -96.76627 3532 ft 257 kts 243°
2026-04-27 22:29 33.06069 -96.78406 3248 ft 256 kts 242°
2026-04-27 22:30 33.05329 -96.80129 3039 ft 251 kts 242°
2026-04-27 22:30 33.04614 -96.81791 3004 ft 239 kts 242°
2026-04-27 22:30 33.03941 -96.83346 2991 ft 224 kts 242°
2026-04-27 22:30 33.03291 -96.84852 2993 ft 211 kts 242°
2026-04-27 22:31 33.02678 -96.86276 2875 ft 209 kts 242°
2026-04-27 22:31 33.02071 -96.87699 2667 ft 215 kts 243°
2026-04-27 22:31 33.01472 -96.89107 2529 ft 217 kts 242°
2026-04-27 22:31 33.00856 -96.90570 2503 ft 214 kts 242°
2026-04-27 22:32 33.00228 -96.92062 2503 ft 211 kts 243°
2026-04-27 22:32 32.99632 -96.93484 2504 ft 211 kts 243°
2026-04-27 22:32 32.98855 -96.94804 2487 ft 213 kts 217°
2026-04-27 22:32 32.97523 -96.95307 2279 ft 226 kts 183°
2026-04-27 22:33 32.96025 -96.95355 2061 ft 234 kts 181°
2026-04-27 22:33 32.94634 -96.95143 1845 ft 212 kts 167°
2026-04-27 22:33 32.93441 -96.94534 1548 ft 204 kts 145°
2026-04-27 22:33 32.92519 -96.93572 1664 ft 191 kts 136°
2026-04-27 22:34 32.91695 -96.92545 1600 ft 188 kts 134°
2026-04-27 22:34 32.90839 -96.91518 1434 ft 188 kts 140°
2026-04-27 22:34 32.89971 -96.90599 1345 ft 192 kts 139°
2026-04-27 22:34 32.89088 -96.89622 1252 ft 185 kts 138°
2026-04-27 22:35 32.88288 -96.88682 1140 ft 167 kts 137°
2026-04-27 22:35 32.87566 -96.87824 964 ft 149 kts 138°
2026-04-27 22:35 32.86955 -96.87109 843 ft 132 kts 138°
2026-04-27 22:35 32.86414 -96.86472 751 ft 112 kts 138°
2026-04-27 22:36 32.85932 -96.85915 574 ft 101 kts 139°
2026-04-27 22:36 32.85490 -96.85410 479 ft 91 kts 132°
2026-04-27 22:36 32.85109 -96.84972 483 ft 51 kts 134°
2026-04-27 22:36 32.84919 -96.84747 486 ft 36 kts 136°
2026-04-27 22:37 32.84790 -96.84599 486 ft 15 kts 111°
2026-04-27 22:37 32.84840 -96.84500 489 ft 16 kts 17°